AO-07 1 07530U 74089B 26073.59534925 -.00000020 00000-0 16781-3 0 9992 2 07530 101.9966 85.8380 0011942 312.6143 166.4494 12.53696481348664 UO-11 1 14781U 84021B 26073.50715671 .00001948 00000-0 20500-3 0 9998 2 14781 97.7953 40.2130 0008715 129.5508 230.6481 14.90526062243024 AO-27 1 22825U 93061C 26073.18223763 .00000118 00000-0 61916-4 0 9995 2 22825 98.6972 140.5955 0008738 26.6550 333.5080 14.30914705693410 FO-29 1 24278U 96046B 26073.60013971 .00000022 00000-0 60160-4 0 9994 2 24278 98.5375 295.3553 0349616 342.0303 16.8727 13.53269068460372 GO-32 1 25397U 98043D 26073.58691896 .00000114 00000-0 69244-4 0 9995 2 25397 99.0030 63.9796 0002178 111.7823 248.3587 14.24407722437868 ISS 1 25544U 98067A 26073.41792243 .00009990 00000-0 19399-3 0 9991 2 25544 51.6328 48.9797 0006390 189.6380 170.4486 15.48274195557063 NO-44 1 26931U 01043C 26073.58737432 .00000170 00000-0 94420-4 0 9997 2 26931 67.0498 128.9462 0006995 265.0362 94.9941 14.31914913276908 SO-50 1 27607U 02058C 26073.27104551 .00002083 00000-0 26271-3 0 9994 2 27607 64.5526 62.6028 0075308 279.8659 79.3951 14.82804742250387 CO-55 1 27844U 03031E 26072.98964531 .00000396 00000-0 19032-3 0 9990 2 27844 98.6777 82.7351 0010745 101.3524 258.8862 14.24270180178127 RS-22 1 27939U 03042A 26073.61578894 .00001549 00000-0 24778-3 0 9995 2 27939 98.3446 255.3138 0010774 203.3329 244.0936 14.73270096201622 CO-65 1 32785U 08021C 26073.55609676 .00009572 00000-0 61792-3 0 9999 2 32785 97.8205 53.1147 0009062 2.4593 357.6677 15.08451051970927 CO-66 1 32791U 08021J 26073.43612563 .00022985 00000-0 80965-3 0 9998 2 32791 97.7516 67.0643 0000660 332.7648 27.3557 15.29309746972799 RS-30 1 32953U 08025A 26073.53656483 .00000059 00000-0 35438-3 0 9995 2 32953 82.5006 54.3066 0019695 154.7194 205.4854 12.43176204807935 SRMSAT 1 37841U 11058D 26073.63607541 .00000473 00000-0 11273-3 0 9999 2 37841 19.9716 271.7666 0011723 243.5427 173.7413 14.11549824744442 ZACUBE-1 1 39417U 13066B 26073.13182302 .00005011 00000-0 39631-3 0 9990 2 39417 97.8156 34.9774 0043050 205.1786 154.7340 15.00372843666473 Delfi-N3xt 1 39428U 13066N 26073.50365853 .00009637 00000-0 86336-3 0 9999 2 39428 97.8338 353.9977 0076699 160.4263 199.9930 14.93749546660484 GOMX-1 1 39430U 13066Q 26073.52434723 .00001923 00000-0 29526-3 0 9995 2 39430 97.6572 279.9280 0129897 22.0918 338.5816 14.69117694656012 LO-74 1 39440U 13066AA 26073.38908112 .00006556 00000-0 61561-3 0 9990 2 39440 97.8810 22.0690 0058036 343.4169 16.5150 14.93018127662846 AO-73 1 39444U 13066AE 26072.35704843 .00007962 00000-0 51353-3 0 9995 2 39444 97.8186 41.9580 0037754 166.4701 193.7548 15.07980612665219 DTUSAT-2 1 40030U 14033W 26073.41927059 .00009303 00000-0 52124-3 0 9995 2 40030 98.0847 65.2415 0007663 184.2472 175.8694 15.13630115638348 LILACSAT-2 1 40908U 15049K 26073.62115170 .00024422 00000-0 46433-3 0 9998 2 40908 97.4804 107.0174 0006071 223.1172 136.9603 15.48228564581105 Horyu-4 1 41340U 16012D 26073.57392746 .00121667 00000-0 12267-2 0 9996 2 41340 30.9920 33.8282 0003998 201.4323 158.6163 15.63882335555871 Lapan A3 1 41603U 16040E 26073.59591955 .00004901 00000-0 15867-3 0 9995 2 41603 97.1483 72.9028 0010421 6.1400 353.9968 15.32434802540324 CAS-2T 1 41847U 16066G 26073.48654589 .00001442 00000-0 20981-3 0 9994 2 41847 98.3878 150.2835 0343491 56.9870 306.3834 14.44485346491129 TechnoSat 1 42829U 17042E 26073.41703466 .00003803 00000-0 27602-3 0 9992 2 42829 97.4143 234.7831 0019062 60.2212 300.0908 15.04324760472458 AO-91 1 43017U 17073E 26073.62831316 .00013646 00000-0 61706-3 0 9994 2 43017 97.4861 302.8209 0153791 295.0415 63.4915 15.10996825451103 S-Net D 1 43186U 18014G 26073.62594063 .00008541 00000-0 45144-3 0 9998 2 43186 97.5434 339.0384 0008296 358.5907 1.5301 15.15700209444437 S-Net B 1 43187U 18014H 26073.23946779 .00006451 00000-0 34224-3 0 9996 2 43187 97.5441 338.6379 0008881 355.4646 4.6504 15.15665579444373 S-Net A 1 43188U 18014J 26073.29517390 .00007156 00000-0 37884-3 0 9994 2 43188 97.5449 338.8851 0008736 355.1215 4.9931 15.15700530444382 S-Net C 1 43189U 18014K 26073.30885303 .00006505 00000-0 34508-3 0 9996 2 43189 97.5465 338.9586 0009838 346.3589 13.7376 15.15659412442939 Ten-Koh 1 43677U 18084G 26073.50356374 .00002970 00000-0 22837-3 0 9992 2 43677 98.0793 261.8926 0011865 78.8163 281.4394 15.02494281401948 PO-101 1 43678U 18084H 26073.59199833 .00002169 00000-0 17945-3 0 9991 2 43678 98.1039 265.8299 0012295 112.3342 247.9185 14.99988445402032 QO-100 1 43700U 18090A 26073.57357547 .00000143 00000-0 00000-0 0 9991 2 43700 0.0143 132.0856 0001089 219.1213 53.2689 1.00272024 26724 MinXSS-2 1 43758U 18099A 26073.45823881 .00038449 00000-0 93985-3 0 9996 2 43758 97.4622 147.3863 0007785 240.0056 120.0418 15.40686409399511 AO-95 1 43770U 18099N 26072.12206546 .00013648 00000-0 55688-3 0 9998 2 43770 97.4510 132.8256 0008084 333.7998 26.2829 15.24512623398570 SNUSat 2 1 43782U 18099AA 26073.60345035 .00012722 00000-0 58794-3 0 9995 2 43782 97.4192 128.4901 0008962 264.9343 95.0869 15.20278037398652 SnugLite 1 43784U 18099AC 26073.59447718 .00017271 00000-0 69433-3 0 9992 2 43784 97.4001 128.8990 0001442 243.2088 116.9003 15.24984409398897 ITASat 1 1 43786U 18099AE 26073.58744915 .00009925 00000-0 49362-3 0 9998 2 43786 97.4161 127.0167 0011748 328.3634 31.6892 15.17766406398554 EAGLET 1 1 43790U 18099AJ 26073.38508821 .00004680 00000-0 27479-3 0 9993 2 43790 97.4364 125.5584 0010023 319.6174 40.4312 15.12158630398001 ESEO 1 43792U 18099AL 26073.57884052 .00002368 00000-0 17571-3 0 9992 2 43792 97.4112 114.9792 0010413 300.0657 59.9536 15.03940328397588 JO-97 1 43803U 18099AX 26073.59016575 .00024744 00000-0 83935-3 0 9993 2 43803 97.4249 136.2668 0004997 235.6318 124.4451 15.30507754399148 Suomi 100 1 43804U 18099AY 26073.60044371 .00018520 00000-0 71797-3 0 9999 2 43804 97.4311 134.4503 0009102 249.7924 110.2335 15.26150841398980 ISAT 1 43879U 18111D 26073.04524446 .00068465 00000-0 11438-2 0 9998 2 43879 97.5899 2.0328 0002078 300.6441 59.4606 15.51696922396352 UWE-4 1 43880U 18111E 26073.02812134 .00036111 00000-0 89456-3 0 9991 2 43880 97.5847 357.4738 0006672 322.1188 37.9587 15.40303245396103 Sparrow 1 43881U 18111F 26073.05142473 .00086809 00000-0 12584-2 0 9993 2 43881 97.6102 6.4631 0003084 33.5228 326.6220 15.55553911396503 Prox-1 1 44339U 19036A 26073.52830632 .00019582 00000-0 20395-2 0 9995 2 44339 23.9962 25.4184 0006196 19.3933 340.6801 14.88204672359348 Taurus 1 1 44530U 19059C 26073.59218087 .00009909 00000-0 16249-2 0 9999 2 44530 98.6308 232.6775 0008578 241.9521 118.0817 14.70903019344737 TO-108 1 44881U 19093C 26073.60006061 .00000688 00000-0 83997-4 0 9996 2 44881 97.7603 148.1218 0014615 42.8077 317.4274 14.86351712337367 RS-44 1 44909U 19096E 26073.40705991 .00000024 00000-0 53931-4 0 9995 2 44909 82.5211 42.6787 0217725 6.3050 354.0711 12.79747576290220 SALSAT 1 46495U 20068K 26073.51831201 .00012617 00000-0 46004-3 0 9997 2 46495 97.8858 70.9296 0008069 275.9056 84.1263 15.28293668300899 CSS (TIANHE-1) 1 48274U 21035A 26073.00269975 .00029757 00000-0 34787-3 0 9994 2 48274 41.4663 181.9138 0006689 299.3968 60.6202 15.60904690278280 CUTE 1 49263U 21088D 26073.21344415 .00055089 00000-0 51289-3 0 9990 2 49263 97.4217 165.6698 0003032 293.5650 66.5291 15.67213481247588 TeikyoSat 4 1 49396U 21102B 26073.58193437 .00002837 00000-0 18245-3 0 9998 2 49396 97.3788 106.7134 0010567 256.9945 103.0105 15.09142931238453 Z-Sat 1 49399U 21102E 26073.59834433 .00005866 00000-0 29524-3 0 9997 2 49399 97.3456 111.7870 0015844 212.4472 147.5789 15.17476653239098 KOSEN 1 1 49402U 21102H 26073.59504407 .00011731 00000-0 46549-3 0 9991 2 49402 97.3329 117.6220 0014334 175.2198 184.9179 15.25417170239591 HO-113 1 50466U 21131B 26073.64139863 .00000723 00000-0 23727-3 0 9993 2 50466 98.4952 166.5679 0004681 36.7452 323.4057 14.41258508221496 SNUGLITE 2 1 52899U 22065F 26073.38714125 .00001377 00000-0 27104-3 0 9992 2 52899 98.2040 218.4735 0006658 328.8528 31.2279 14.64144476197124 UmKA 1 (RS40S) 1 57172U 23091G 26073.57652914 .00009694 00000-0 45604-3 0 9994 2 57172 97.5174 132.6630 0014642 90.9102 269.3810 15.19678773149632 CubeBel-2 (EU11S) 1 57175U 23091K 26073.62195418 .00017739 00000-0 67302-3 0 9992 2 57175 97.5169 136.1090 0011807 91.4062 268.8529 15.26850416149869 RS-38S 1 57189U 23091Z 26073.65926225 .00023796 00000-0 74775-3 0 9990 2 57189 97.5193 141.4297 0008442 57.6256 302.5802 15.32956915150195 SONATE-2 1 59112U 24043Q 26073.36743000 .00044827 00000-0 74944-3 0 9998 2 59112 97.5392 218.5234 0007954 187.4749 172.6386 15.51750307113153 GRBBeta 1 60237U 24128C 26073.62106491 .00006669 00000-0 45815-3 0 9995 2 60237 61.9900 187.8576 0050982 115.0019 245.6380 15.05861275 92029 Curium One 1 60242U 24128H 26073.58433259 .00013600 00000-0 79780-3 0 9992 2 60242 61.9792 180.4508 0050661 111.4455 249.2054 15.10971153 92151 ROBUSTA-3A 1 60243U 24128J 26073.56444431 .00013995 00000-0 83775-3 0 9991 2 60243 61.9863 182.4870 0051268 109.1432 251.5222 15.10195484 92123 CatSat 1 60246U 24125J 26073.33938717 .00057590 00000-0 10372-2 0 9992 2 60246 97.2205 285.2361 0027788 170.8518 189.3246 15.49180589 92660 HYPERVIEW-1G (RS66S) 1 61772U 24199AP 26073.63681154 .00090903 00000-0 11700-2 0 9992 2 61772 97.3084 309.8394 0006288 259.2893 100.7655 15.58731026119872 AO-123 1 61781U 24199AY 26073.57321027 .00013238 00000-0 40142-3 0 9994 2 61781 97.3155 303.1139 0012508 290.7564 69.2338 15.34172863119411 JINJUSat 1B 1 63210U 25052A 26073.43703229 .00021902 00000-0 74606-3 0 9994 2 63210 97.4118 330.2242 0005437 72.0299 288.1534 15.30393700 55594 NUSHSAT 1 1 63211U 25052B 26073.61095118 .00031127 00000-0 10018-2 0 9992 2 63211 97.4096 330.6889 0005384 74.1229 286.0606 15.32154909 55649 TEVEL2-4 1 63213U 25052D 26073.46527085 .00024051 00000-0 80014-3 0 9992 2 63213 97.4019 329.8836 0004799 86.5032 273.6758 15.31142676 55609 TEVEL2-5 1 63214U 25052E 26072.95373556 .00021913 00000-0 73283-3 0 9992 2 63214 97.4014 329.3446 0004732 87.9686 272.2097 15.30992820 55529 TEVEL2-6 1 63215U 25052F 26073.61727799 .00027598 00000-0 92174-3 0 9994 2 63215 97.4019 329.9926 0004864 86.9728 273.2070 15.30988241 55621 TEVEL2-1 1 63217U 25052H 26073.61688072 .00026766 00000-0 90592-3 0 9994 2 63217 97.3988 329.7196 0004986 95.8910 264.2900 15.30562617 55617 TEVEL2-3 1 63218U 25052J 26073.22208351 .00022359 00000-0 75728-3 0 9998 2 63218 97.3993 329.3377 0004939 96.9719 263.2084 15.30578626 55550 TEVEL2-2 1 63219U 25052K 26073.15988645 .00022260 00000-0 75480-3 0 9998 2 63219 97.3990 329.2648 0004900 97.5178 262.6619 15.30541286 55540 TEVEL2-9 1 63237U 25052AD 26073.61147458 .00024133 00000-0 86119-3 0 9990 2 63237 97.4057 329.2758 0008350 110.7420 249.4715 15.28837495 55567 TEVEL2-7 1 63238U 25052AE 26073.44010049 .00020987 00000-0 75490-3 0 9990 2 63238 97.4061 329.0560 0008462 111.2673 248.9471 15.28605048 55539 TEVEL2-8 1 63239U 25052AF 26073.57811395 .00024687 00000-0 88741-3 0 9992 2 63239 97.4063 329.1740 0008410 111.3705 248.8433 15.28593389 55556 HYDRA-W 1 63490U 25052BL 26072.67159496 .00241176 00000-0 24005-2 0 9994 2 63490 97.3926 334.0185 0009144 101.2498 258.9790 15.64892726 55816 HADES-ICM (SO-125) 1 63492U 25052BN 26073.45166952 .00176304 00000-0 22705-2 0 9993 2 63492 97.3933 334.0766 0009145 102.4397 257.7883 15.58396426 55889 Ten-Koh2 1 66174U 25241A 26073.34423291 .00012784 00000-0 55060-3 0 9995 2 66174 51.6357 50.7100 0005739 187.3646 172.7248 15.22909432 21668 SPIRONE 1 66657U 25274H 26073.37526149 .00002713 00000-0 26546-3 0 9994 2 66657 97.7440 4.0761 0011666 337.7450 22.3261 14.93105771 16078 K-HERO 1 66660U 25274L 26073.54128067 .00003656 00000-0 35163-3 0 9996 2 66660 97.7443 4.3286 0013497 340.2997 19.7700 14.93559382 16102 SNUGLITE-III DURI 1 66661U 25274M 26073.53285774 .00002947 00000-0 28383-3 0 9993 2 66661 97.7439 4.3359 0014194 340.7921 19.2762 14.93641230 16103 SilverSat 1 66909U 98067XV 26073.15601561 .00277261 00000-0 18276-2 0 9994 2 66909 51.6244 41.9590 0005406 108.4786 251.6801 15.74242303 15898 SAKHACUBE-CHOLBON 1 67290U 25313AU 26073.47923725 .00013620 00000-0 58074-3 0 9994 2 67290 97.4003 149.8015 0008666 336.4630 23.6209 15.23020169 11551 RS95S (QMR-KWT-2) 1 67291U 25313AV 26073.46533184 .00018007 00000-0 75225-3 0 9991 2 67291 97.4002 149.8193 0008301 334.5833 25.4995 15.23652937 11554 IO-86 1 40931U 25360.30710720 .00000000 00000-0 12800-3 0 00 2 40931 6.0006 332.5373 0012733 338.8432 8.1437 14.79075515 01